LVJAM ZZZZ-SADF

Flight info

Callsign LVJAM
Flight time N/A
Altitude FL015
Route GEZ DCT FDO
Aircraft C182/L-S/N

Departure

Time N/A
Airport ZZZZ

Arrival

Time 2026-05-05 19:40
Airport San Fernando Airport (SADF)
Time Latitude Longitude Altitude Speed Heading
2026-05-05 19:30 -34.59365 -58.94291 1865 ft 119 kts 52°
2026-05-05 19:30 -34.58889 -58.93436 1796 ft 124 kts 54°
2026-05-05 19:30 -34.58419 -58.92580 1814 ft 121 kts 53°
2026-05-05 19:30 -34.57951 -58.91726 1789 ft 122 kts 54°
2026-05-05 19:31 -34.57484 -58.90877 1785 ft 121 kts 53°
2026-05-05 19:31 -34.57017 -58.90025 1767 ft 121 kts 53°
2026-05-05 19:31 -34.56552 -58.89179 1763 ft 121 kts 53°
2026-05-05 19:31 -34.56086 -58.88328 1750 ft 121 kts 54°
2026-05-05 19:32 -34.55621 -58.87481 1740 ft 121 kts 54°
2026-05-05 19:32 -34.55142 -58.86613 1586 ft 135 kts 53°
2026-05-05 19:32 -34.54614 -58.85666 1592 ft 130 kts 53°
2026-05-05 19:32 -34.54137 -58.84803 1760 ft 122 kts 53°
2026-05-05 19:33 -34.53652 -58.83922 1727 ft 129 kts 53°
2026-05-05 19:33 -34.53174 -58.83055 1893 ft 118 kts 54°
2026-05-05 19:33 -34.52713 -58.82261 2012 ft 116 kts 54°
2026-05-05 19:33 -34.52235 -58.81435 1986 ft 123 kts 59°
2026-05-05 19:34 -34.51801 -58.80555 2036 ft 122 kts 62°
2026-05-05 19:34 -34.51347 -58.79655 1993 ft 126 kts 60°
2026-05-05 19:34 -34.50906 -58.78752 2036 ft 124 kts 62°
2026-05-05 19:35 -34.50175 -58.76833 1998 ft 127 kts 69°
2026-05-05 19:35 -34.49862 -58.75837 1975 ft 127 kts 69°
2026-05-05 19:35 -34.49662 -58.74790 1929 ft 130 kts 79°
2026-05-05 19:35 -34.49554 -58.73700 1892 ft 132 kts 81°
2026-05-05 19:36 -34.49583 -58.72589 1834 ft 137 kts 99°
2026-05-05 19:36 -34.49838 -58.71448 1752 ft 140 kts 104°
2026-05-05 19:36 -34.50108 -58.70346 1804 ft 135 kts 102°
2026-05-05 19:36 -34.50298 -58.69237 1807 ft 134 kts 95°
2026-05-05 19:37 -34.50349 -58.68123 1787 ft 134 kts 86°
2026-05-05 19:37 -34.50279 -58.66980 1728 ft 137 kts 83°
2026-05-05 19:37 -34.50239 -58.65877 1586 ft 130 kts 85°
2026-05-05 19:37 -34.50188 -58.64762 1294 ft 131 kts 73°
2026-05-05 19:38 -34.49677 -58.63886 1056 ft 130 kts 34°
2026-05-05 19:38 -34.48987 -58.63213 934 ft 126 kts 39°
2026-05-05 19:38 -34.48336 -58.62508 788 ft 127 kts 43°
2026-05-05 19:38 -34.47754 -58.61837 603 ft 107 kts 44°
2026-05-05 19:39 -34.47285 -58.61265 622 ft 89 kts 46°
2026-05-05 19:39 -34.46827 -58.60729 493 ft 91 kts 46°
2026-05-05 19:39 -34.46392 -58.60198 218 ft 88 kts 48°
2026-05-05 19:39 -34.45973 -58.59706 28 ft 77 kts 45°
2026-05-05 19:40 -34.45702 -58.59390 13 ft 10 kts 38°
2026-05-05 19:40 -34.45682 -58.59354 13 ft 7 kts 66°
2026-05-05 19:40 -34.45685 -58.59329 13 ft 3 kts 127°
2026-05-05 19:40 -34.45723 -58.59301 13 ft 9 kts 154°
2026-05-05 19:41 -34.45794 -58.59257 13 ft 11 kts 152°
2026-05-05 19:41 -34.45839 -58.59228 13 ft 9 kts 153°
2026-05-05 19:41 -34.45859 -58.59191 13 ft 5 kts 70°
2026-05-05 19:41 -34.45827 -58.59115 13 ft 15 kts 63°
2026-05-05 19:42 -34.45768 -58.58976 13 ft 22 kts 63°
2026-05-05 19:42 -34.45760 -58.58957 13 ft 0 kts 64°
2026-05-05 19:43 -34.45760 -58.58956 13 ft 0 kts 64°
2026-05-05 19:44 -34.45759 -58.58956 13 ft 0 kts 63°
2026-05-05 19:45 -34.45751 -58.58935 13 ft 9 kts 65°
2026-05-05 19:45 -34.45778 -58.58891 13 ft 0 kts 159°